Reflectivity
-20 -20 -20 6 -20 -20 -20 -20 -2 1 -1 7 21 27 6 -20 -20 -20 -20 -20 -20 -20 -20 -20 -20 -20 -20 -20 -20 -20 -20 -20 -20 -20 -20 -20 -20 -20 -20 -20 -20 -20 -20 -20
7 -20 -20 -1 -9 -5 -0 -17 -2 5 -11 -13 -13 7 -20 -15 -20 -20 -20 -20 -20 -20 -20 -20 -20 -20 -20 -20 -20 -20 -20 -20 -20 -20 -20 -20 -20 -20 -20 -20 -20 -20 -20 -20
-17 -20 -20 16 -15 -20 -20 -20 -7 -11 5 10 -3 -19 -20 -20 -20 -20 -20 -20 -20 -20 -20 -20 -20 -20 -20 -20 -20 -20 -20 -20 -20 -20 -20 -20 -20 -20 -20 -20 -20 -20 -20 -20
-20 -20 23 0 -20 -9 -20 -19 -10 -18 -1 15 -18 -20 -20 -20 -20 -20 -20 -20 -20 -20 -20 -20 -20 -20 -20 -20 -20 -20 -20 -20 -20 -20 -20 -20 -20 -20 -20 -20 -20 -20 -20 -20
-20 -20 -20 -20 -20 -20 3 -20 -20 -14 -4 -9 -14 -20 -20 -20 -20 -20 -20 -20 -20 -20 -20 -20 -20 -20 -20 -20 -20 -20 -20 -20 -20 -20 -20 -20 -20 -20 -20 -20 -20 -20 -20 -20
-20 -20 -20 -20 -20 -20 -20 -20 -12 -2 8 -20 -15 -20 -20 -20 -20 -20 -20 -20 -20 -20 -20 -20 -20 -20 -20 -20 -20 -20 -20 -20 -20 -20 -20 -20 -20 -20 -20 -20 -20 -20 -20 -20
-20 -20 -20 -20 -20 -20 -20 -10 14 -1 -18 -20 -20 -20 -20 -20 -20 -20 -20 -20 -20 -20 -20 -20 -20 -20 -20 -20 -20 -20 -20 -20 -20 -20 -20 -20 -20 -20 -20 -20 -20 -20 -20 -20
-20 -20 -20 -20 -20 -20 -20 -20 -20 -20 -20 -20 -20 -20 -20 -20 -20 -20 -20 -20 -20 -20 -20 -20 -20 -20 -20 -20 -20 -20 -20 -20 -20 -20 -20 -20 -20 -20 -20 -20 -20 -20 -20 -20
-20 -20 -20 -20 -20 -20 -20 -20 -20 -20 -20 -20 -20 -20 -20 -20 -20 -20 -20 -20 -20 -20 -20 -20 -20 -20 -20 -20 -20 -20 -20 -20 -20 -20 -20 -20 -20 -20 -20 -20 -20 -20 -20 -20
-20 -20 -20 -20 -20 -20 -20 -20 -20 -20 -20 -20 -20 -20 -20 -20 -20 -20 -20 -20 -20 -20 -20 -20 -20 -20 -20 -20 -20 -20 -20 -20 -20 -20 -20 -20 -20 -20 -20 -20 -20 -20 -20 -20
-20 -20 -20 -20 -20 -20 -20 -20 -20 -20 -20 -20 -20 -20 -20 -20 -20 -20 -20 -20 -20 -20 -20 -20 -20 -20 -20 -20 -20 -20 -20 -20 -20 -20 -20 -20 -20 -20 -20 -20 -20 -20 -20 -20
-20 -20 -20 -20 -20 -20 -20 -20 -20 -20 -20 -20 -20 -20 -20 -20 -20 -20 -20 -20 -20 -20 -20 -20 -20 -20 -20 -20 -20 -20 -20 -20 -20 -20 -20 -20 -20 -20 -20 -20 -20 -20 -20 -20
-20 -20 -20 -20 -20 -20 -20 -20 -20 -20 -20 -20 -20 -20 -20 -20 -20 -20 -20 -20 -20 -20 -20 -20 -20 -20 -20 -20 -20 -20 -20 -20 -20 -20 -20 -20 -20 -20 -20 -20 -20 -20 -20 -20
-20 -20 -20 -20 -20 -20 -20 -20 -20 -20 -20 -20 -20 -20 -20 -20 -20 -20 -20 -20 -20 -20 -20 -20 -20 -20 -20 -20 -20 -20 -20 -20 -20 -20 -20 -20 -20 -20 -20 -20 -20 -20 -20 -20
-20 -20 -20 -20 -20 -20 -20 -20 -20 -18 -20 -20 -20 -20 -20 -20 -20 -20 -20 -20 -20 -20 -20 -20 -20 -20 -20 -20 -20 -20 -20 -20 -20 -20 -20 -20 -20 -20 -20 -20 -20 -20 -20 -20
-20 -20 -20 -20 -20 -20 -20 -20 -20 -20 -20 -20 -20 -20 -20 -20 -20 -20 -20 -20 -20 -20 -20 -20 -20 -20 -20 -20 -20 -20 -20 -20 -20 -20 -20 -20 -20 -20 -20 -20 -20 -20 -20 -20
-20 -20 -20 -20 -20 -20 -20 -20 -20 -20 -20 -20 -20 -20 -20 -20 -20 -20 -20 -20 -20 -20 -20 -20 -20 -20 -20 -20 -20 -20 -20 -20 -20 -20 -20 -20 -20 -20 -20 -20 -20 -20 -20 -20
-20 -20 -20 -20 -20 -20 -20 -20 -20 -20 -20 -20 -20 -20 -20 -20 -20 -20 -20 -20 -20 -20 -20 -20 -20 -20 -20 -20 -20 -20 -20 -20 -20 -20 -20 -20 -20 -20 -20 -20 -20 -20 -20 -20
-20 -20 -20 -20 -20 -20 -20 -20 -20 -20 -20 -20 -20 -20 -20 -20 -20 -20 -20 -20 -20 -20 -20 -20 -20 -20 -20 -20 -20 -20 -20 -20 -20 -20 -20 -20 -20 -20 -20 -20 -20 -20 -20 -20
-20 -20 -20 -20 -20 -20 -20 -20 -20 -20 -20 -20 -20 -20 -20 -20 -20 -20 -20 -20 -20 -20 -20 -20 -20 -20 -20 -20 -20 -20 -20 -20 -20 -20 -20 -20 -20 -20 -20 -20 -20 -20 -20 -20
-19 -20 -20 -20 -20 -20 -20 -20 -20 -20 -20 -20 -20 -20 -20 -20 -20 -20 -20 -20 -20 -20 -20 -20 -20 -20 -20 -20 -20 -20 -20 -20 -20 -20 -20 -20 -20 -20 -20 -20 -20 -20 -20 -20
-0 -12 -20 -20 -20 -20 -20 -20 -20 -20 -20 -20 -20 -20 -20 -20 -20 -20 -20 -20 -20 -20 -20 -20 -20 -20 -20 -20 -20 -20 -20 -20 -20 -20 -20 -20 -20 -20 -20 -20 -20 -20 -20 -20
12 3 -19 -20 -20 -20 -20 -20 -20 -20 -20 -20 -20 -20 -20 -20 -20 -20 -20 -19 -15 -20 -20 -20 -20 -20 -20 -20 -20 -20 -20 -20 -20 -20 -20 -20 -20 -20 -20 -20 -20 -20 -20 -20
-20 -10 2 -19 -20 -20 -20 -20 -20 -20 -20 -20 -20 -20 -18 -11 -9 -15 -20 -20 -20 -20 -20 -20 -20 -20 -20 -20 -20 -20 -20 -20 -20 -20 -20 -20 -20 -20 -20 -20 -20 -20 -20 -20
-14 -2 -19 -20 -20 -19 -8 -15 -19 -20 -18 -5 -2 -6 -18 -20 -20 -20 -20 -20 -20 -20 -20 -20 -20 -20 -20 -20 -20 -20 -20 -20 -20 -20 -20 -20 -20 -20 -20 -20 -20 -20 -20 -13
-18 -6 -3 -5 -0 -8 -15 -13 -16 -14 -16 -18 -20 -20 -20 -20 -20 -20 -20 -20 -20 -20 -20 -20 -20 -20 -20 -20 -20 -20 -20 -20 -20 -20 -20 -20 -20 -20 -20 -20 -8 -20 -20 -13
Wind_Speed
18 11 17 24 21 21 20 14 16 14 13 9 16 18 19 11 13 16 17 18 17 16 14 14 13 13 12 11 11 11 10 10 7 7 7 6 6 5 5 5 6 6 6 6
16 18 26 22 21 22 13 18 13 5 11 9 9 21 19 15 17 18 19 19 19 18 18 15 15 14 13 13 12 11 10 10 8 6 5 4 6 5 5 4 5 5 6 6
20 22 26 22 18 13 12 16 11 1 7 5 6 14 19 20 18 18 19 19 20 20 19 18 17 16 13 13 12 10 10 9 7 7 5 5 6 5 4 4 4 4 5 6
17 22 23 14 18 19 16 7 7 11 10 7 16 9 21 22 21 21 21 20 19 20 19 18 18 17 15 12 10 10 9 9 8 9 8 10 6 5 4 4 4 4 5 5
14 20 15 18 21 19 10 8 9 11 12 4 10 8 11 15 18 21 21 21 19 19 18 19 18 16 14 12 10 10 10 9 8 8 7 5 5 6 4 4 4 4 4 3
19 4 12 18 15 12 13 9 6 4 6 8 17 14 12 11 20 20 21 19 19 19 18 17 16 16 14 12 11 10 11 10 9 8 7 7 7 6 5 3 3 2 2 1
20 11 3 4 9 7 15 17 5 5 5 10 3 14 12 6 4 7 21 20 20 18 18 17 18 16 15 14 12 11 11 10 9 8 7 7 7 5 5 3 2 2 2 2
17 13 15 14 15 12 22 18 6 8 9 10 4 10 6 4 10 6 4 17 18 19 17 18 17 15 16 15 13 12 12 10 9 8 8 7 6 4 3 2 1 2 3 4
19 17 15 11 6 10 18 15 10 1 1 3 9 10 6 8 9 9 11 16 18 19 18 18 18 16 15 14 14 13 12 11 9 9 7 6 5 3 2 1 2 2 4 4
13 13 12 5 5 6 8 11 8 5 7 8 9 10 5 14 15 14 16 18 19 19 19 17 17 16 14 14 12 12 12 11 9 8 6 5 4 2 1 2 3 5 6 6
10 5 8 8 16 17 7 8 8 5 8 8 9 5 3 7 16 18 18 18 20 20 19 17 16 15 14 13 12 12 11 10 9 7 6 5 3 1 2 3 5 6 7 8
24 4 7 15 4 5 16 15 17 8 9 7 4 1 1 2 13 15 17 18 19 19 18 17 16 15 14 13 12 11 10 9 8 6 5 3 1 1 3 5 7 8 9 9
19 12 8 6 1 4 9 16 16 5 5 12 9 4 4 7 10 14 18 18 18 19 18 16 15 14 14 13 12 11 10 9 7 5 3 2 1 4 6 7 7 8 9 10
16 10 20 17 12 15 14 19 17 12 4 11 13 6 11 13 15 16 17 18 19 17 17 16 15 14 13 13 12 11 9 7 6 4 1 2 4 5 6 8 8 9 9 10
15 8 18 18 1 12 11 23 24 19 22 12 16 15 11 16 17 17 18 18 19 19 17 16 15 14 13 12 11 9 8 6 4 2 1 4 5 6 7 8 9 9 10 10
9 1 2 2 3 7 5 16 23 25 20 18 5 9 2 15 16 18 19 19 19 18 17 16 15 15 13 12 10 8 7 4 2 1 3 4 6 7 8 9 9 10 10 11
14 8 4 9 7 5 5 19 19 20 19 21 18 7 11 15 17 19 20 19 19 18 17 16 15 13 11 10 9 7 5 4 1 2 4 6 7 8 10 10 11 11 11 12
15 12 4 5 8 7 4 4 16 20 17 18 10 12 16 15 12 13 15 17 18 18 16 15 13 12 10 9 7 6 4 2 0 4 5 7 8 9 10 11 11 12 11 12
13 13 6 7 10 2 4 5 9 16 11 16 16 13 14 17 18 12 13 15 17 17 15 13 11 11 9 8 6 4 2 1 3 5 7 8 9 10 11 12 12 12 12 12
6 14 7 6 6 10 6 8 4 7 7 15 15 19 22 19 9 9 14 17 18 16 14 13 12 10 9 7 5 3 2 3 5 6 8 9 10 11 12 12 11 10 12 13
6 7 12 8 7 2 4 8 6 9 3 12 16 17 18 11 5 20 18 17 16 14 15 13 10 9 8 6 4 2 3 4 6 7 9 10 10 11 11 11 11 11 12 12
10 10 9 10 6 7 8 5 5 4 7 11 14 15 16 20 23 21 18 17 15 15 13 11 10 8 6 5 3 3 4 5 7 8 9 10 11 9 9 11 10 11 12 12
5 1 6 2 3 5 5 6 7 3 12 14 17 19 22 22 21 19 17 17 14 13 11 9 8 7 4 3 3 4 5 6 8 9 10 10 11 10 10 9 9 9 10 9
3 3 5 7 5 8 8 9 11 11 15 16 17 19 21 23 19 18 15 13 12 10 9 8 7 5 3 3 3 4 6 7 8 10 10 10 10 10 9 8 8 8 8 9
3 3 7 7 8 11 10 10 14 17 18 20 19 19 20 19 17 15 13 12 11 9 8 6 4 3 3 4 5 5 6 7 8 9 9 9 8 9 9 8 7 8 9 10
6 3 1 3 11 10 13 14 17 21 20 19 20 20 16 16 15 14 12 10 9 8 6 4 3 3 4 5 5 6 6 7 8 9 7 7 7 7 7 7 8 11 18 18
Wind_Direction
199 177 211 211 208 225 211 211 186 190 157 168 220 240 237 195 209 212 193 186 185 182 176 169 165 163 162 159 158 158 153 156 155 158 157 151 133 121 101 80 67 62 53 46
184 201 219 217 216 225 253 196 189 116 144 194 221 242 239 222 207 211 198 190 184 182 172 173 170 171 174 167 165 164 164 165 172 172 165 140 132 94 96 97 82 65 65 49
204 213 213 226 209 214 231 203 192 187 116 223 290 260 242 226 207 208 211 196 186 187 177 176 175 177 179 173 166 166 161 166 166 153 133 119 114 133 144 129 104 71 71 63
227 227 205 213 213 210 214 226 157 133 139 230 184 261 227 208 203 206 203 199 188 187 182 177 177 177 178 173 160 154 152 152 149 159 161 164 167 151 111 109 104 98 69 66
201 228 204 216 216 205 221 156 177 172 204 281 194 253 242 190 207 206 203 197 184 181 183 175 178 174 173 157 157 155 147 145 148 161 159 149 124 119 122 119 120 104 102 78
218 334 225 234 223 223 135 120 132 182 225 242 235 216 237 186 215 212 198 192 180 175 175 172 174 167 159 158 158 149 150 145 140 136 139 131 127 130 128 118 121 79 69 36
213 217 157 212 173 172 180 162 152 184 193 240 226 216 243 107 154 216 185 185 174 173 170 168 168 166 161 163 157 157 152 146 140 131 122 116 113 110 112 112 71 358 357 358
195 204 191 198 209 189 199 189 181 202 198 209 152 225 225 75 127 125 266 170 167 169 169 169 167 165 164 162 160 160 154 146 143 134 121 118 125 128 118 101 41 337 333 338
191 216 148 192 193 198 198 217 247 259 289 255 187 238 156 154 161 155 171 164 169 172 169 167 167 163 162 161 162 160 151 151 145 135 135 134 123 116 103 55 339 336 319 315
194 192 199 152 192 236 226 176 180 234 190 229 196 227 223 193 177 165 163 170 170 170 167 166 163 159 158 156 156 151 154 148 144 139 132 127 126 110 46 330 319 318 312 319
241 178 155 159 209 186 164 193 219 243 248 244 243 210 9 182 176 168 166 168 167 165 163 156 157 153 150 146 151 151 145 138 137 135 133 131 115 40 335 319 314 314 316 307
211 182 168 197 67 307 238 214 204 209 189 236 338 240 64 67 149 162 160 157 158 158 152 155 151 147 147 151 148 146 142 140 136 127 128 124 147 304 310 311 317 315 308 305
185 197 141 164 189 213 219 217 232 198 335 206 205 204 118 125 142 155 152 153 153 152 151 148 148 152 151 148 144 143 141 134 130 135 137 153 302 312 311 313 314 311 306 301
171 225 214 207 202 145 201 210 208 193 199 195 226 160 181 171 164 159 154 154 153 150 152 154 154 150 148 146 145 141 136 137 131 130 114 313 312 317 316 312 306 302 302 300
183 237 215 238 134 178 190 192 189 200 220 202 227 230 184 180 170 165 157 153 153 155 156 155 151 148 145 141 140 138 132 132 132 141 298 307 319 311 311 306 304 302 301 300
200 240 165 142 163 204 213 204 201 212 216 235 216 234 352 150 151 159 162 158 159 158 153 152 147 145 146 144 141 132 132 133 130 261 299 311 311 312 307 304 304 303 303 300
175 138 161 215 158 132 275 214 201 214 217 214 214 181 150 149 163 167 161 163 160 156 152 148 146 145 140 137 135 138 130 127 182 299 307 314 312 308 307 308 307 305 302 300
186 173 167 123 158 202 242 353 201 203 213 212 213 151 168 161 149 147 154 157 152 150 145 146 143 132 127 123 121 120 129 140 315 309 310 308 310 308 310 308 307 305 304 303
208 181 146 158 212 23 164 182 173 181 217 210 190 144 126 126 118 122 152 147 144 143 140 136 133 123 124 123 116 119 124 47 320 307 308 315 316 311 310 307 306 305 303 299
231 222 196 172 202 224 85 137 163 175 237 182 164 154 145 150 157 152 144 135 137 133 125 125 124 121 121 110 104 88 34 338 312 324 320 314 312 309 304 303 304 302 300 300
171 186 200 185 214 178 75 143 162 177 140 164 150 152 155 169 78 133 127 125 126 125 124 120 118 107 100 97 78 43 349 323 336 321 311 310 306 300 298 301 305 304 300 298
158 168 186 200 187 220 147 102 216 83 105 127 131 143 114 111 114 121 123 121 121 119 114 111 108 102 95 83 49 357 333 331 317 310 304 302 301 301 303 300 297 298 303 302
169 135 148 171 135 100 31 63 92 113 127 127 118 118 121 119 120 121 123 121 115 112 108 106 105 106 99 85 24 325 320 321 310 304 301 301 303 302 300 301 302 305 303 305
82 30 86 154 65 92 82 86 100 100 111 112 115 119 120 119 119 114 110 113 113 113 110 108 104 95 76 31 349 318 319 311 307 302 303 305 302 303 303 308 303 297 308 316
18 81 113 89 111 97 74 101 110 106 107 109 107 109 110 112 112 113 113 114 115 113 108 100 90 63 9 348 330 323 311 310 304 305 303 302 304 309 308 304 306 312 310 313
352 56 265 126 146 74 118 118 117 109 105 102 104 100 94 103 109 111 110 111 113 115 112 98 64 8 339 327 318 313 313 312 311 304 306 311 312 319 309 310 306 316 314 314